Location: Dal�� Lhota
(48.7500°N, 14.0167°E)
Time: 23:07:36
(UTC+00:00)

Cosmos 2263 Rocket - Pass Details

Date: 24 September 2020
Orbit: 822 x 850 km, 71.0° (Epoch: 25 October)

Event Time Altitude Azimuth Distance (km) Brightness Sun altitude
Rises 17:51:48 0° 233° (SW) 3,352 6.0 -9.8°
Reaches altitude 10° 17:54:23 10° 242° (WSW) 2,426 5.4 -10.3°
Maximum altitude 17:59:31 37° 309° (NW) 1,268 3.8 -11.1°
Drops below altitude 10° 18:04:43 10° 17° (NNE) 2,453 4.6 -11.9°
Sets 18:07:22 0° 25° (NNE) 3,395 5.2 -12.4°
